Photometre #247[Polarized_P] Martova AOT

File : 20190927_247.hum

27/09/2019,04:21:22,TEMP=10.1,BA=5.36,STAT.A
27/09/2019,04:25:25,TEMP=10.2,BA=5.36,STAT.A
27/09/2019,04:30:10,TEMP=10.3,BA=5.40,STAT.A
27/09/2019,04:35:49,TEMP=10.5,BA=5.40,STAT.A
27/09/2019,04:42:40,TEMP=10.6,BA=5.40,STAT.A
27/09/2019,04:51:08,TEMP=10.7,BA=5.44,STAT.A
27/09/2019,05:01:53,TEMP=10.8,BA=5.44,STAT.B
27/09/2019,05:07:04,TEMP=11.0,BA=5.44,STAT.A
27/09/2019,05:12:53,TEMP=11.1,BA=5.44,STAT.A
27/09/2019,05:19:29,TEMP=11.2,BA=5.44,STAT.A
27/09/2019,05:27:02,TEMP=11.2,BA=5.48,STAT.A
27/09/2019,05:35:46,TEMP=11.3,BA=5.52,STAT.C
27/09/2019,05:46:02,TEMP=11.6,BA=5.56,STAT.A
27/09/2019,05:58:19,TEMP=11.8,BA=5.56,STAT.A
27/09/2019,06:13:20,TEMP=11.9,BA=5.60,STAT.A
27/09/2019,06:23:49,TEMP=12.0,BA=5.60,STAT.F
27/09/2019,06:38:49,TEMP=12.2,BA=5.60,STAT.D
27/09/2019,06:53:49,TEMP=12.5,BA=5.64,STAT.D
27/09/2019,07:08:50,TEMP=13.1,BA=5.64,STAT.D
27/09/2019,07:23:49,TEMP=13.7,BA=5.64,STAT.F
27/09/2019,07:38:53,TEMP=14.2,BA=5.64,STAT.D
27/09/2019,07:53:49,TEMP=14.9,BA=5.64,STAT.D
27/09/2019,08:08:50,TEMP=15.6,BA=5.64,STAT.D
27/09/2019,08:23:50,TEMP=17.0,BA=5.64,STAT.F
27/09/2019,08:38:51,TEMP=18.0,BA=5.64,STAT.D
27/09/2019,08:53:51,TEMP=18.5,BA=5.64,STAT.D
27/09/2019,09:08:51,TEMP=18.5,BA=5.64,STAT.D
27/09/2019,09:23:50,TEMP=19.2,BA=5.64,STAT.E
27/09/2019,09:38:51,TEMP=19.8,BA=5.64,STAT.D
27/09/2019,09:53:51,TEMP=19.3,BA=5.64,STAT.D
27/09/2019,10:08:52,TEMP=19.0,BA=5.64,STAT.D
27/09/2019,10:23:52,TEMP=18.9,BA=5.64,STAT.F
27/09/2019,10:38:49,TEMP=18.5,BA=5.64,STAT.D
27/09/2019,10:53:49,TEMP=18.5,BA=5.64,STAT.D
27/09/2019,11:08:49,TEMP=18.6,BA=5.64,STAT.D
27/09/2019,11:23:49,TEMP=18.6,BA=5.64,STAT.F
27/09/2019,11:38:51,TEMP=18.6,BA=5.64,STAT.D
27/09/2019,11:53:49,TEMP=18.8,BA=5.64,STAT.D
27/09/2019,12:08:49,TEMP=18.5,BA=5.64,STAT.D
27/09/2019,12:23:49,TEMP=18.3,BA=5.64,STAT.F
27/09/2019,12:34:18,TEMP=18.1,BA=5.64,STAT.A
27/09/2019,12:49:18,TEMP=17.9,BA=5.60,STAT.A
27/09/2019,13:01:34,TEMP=17.7,BA=5.60,STAT.A
27/09/2019,13:11:50,TEMP=17.6,BA=5.60,STAT.C
27/09/2019,13:20:34,TEMP=17.6,BA=5.60,STAT.A
27/09/2019,13:28:07,TEMP=17.6,BA=5.60,STAT.A
27/09/2019,13:34:43,TEMP=17.6,BA=5.56,STAT.A
27/09/2019,13:40:32,TEMP=17.6,BA=5.60,STAT.A
27/09/2019,13:45:43,TEMP=17.6,BA=5.60,STAT.B
27/09/2019,13:56:28,TEMP=17.3,BA=5.56,STAT.A
27/09/2019,14:04:56,TEMP=17.2,BA=5.48,STAT.A
27/09/2019,14:11:47,TEMP=17.0,BA=5.48,STAT.A
27/09/2019,14:17:26,TEMP=16.9,BA=5.48,STAT.A
27/09/2019,14:22:11,TEMP=16.8,BA=5.48,STAT.A
27/09/2019,14:26:14,TEMP=16.7,BA=5.48,STAT.A